Washington, DC (20001)

5:49 AM EDT on April 26, 2018 (GMT -0400)
Logan Circle | | Change Station

Elev 108 ft 38.91 °N, 77.03 °W | Updated 1 second ago

Clear
Clear
50.2 °F
Feels Like 50.2 °F
N
0.0
Wind Variable Wind from SW
Gusts 0.0 mph

Today
High -- | Low -- °F
--% Chance of Precip.
Yesterday
High -- | Low -- °F
Precip. -- in
Pressure 29.83 in
Visibility 10.0 miles
Clouds Few 5000 ft
Few 25000 ft
Dew Point 45 °F
Humidity 81%
Rainfall 0.00 in
Snow Depth Not available.
6:16 AM 7:55 PM
Waxing Gibbous, 86% visible
METAR KDCA 260852Z 30006KT 10SM FEW050 FEW250 12/03 A2983 RMK AO2 SLP101 T01170033 51026
Pressure 29.83 in
Visibility 10.0 miles
Clouds Few 5000 ft
Few 25000 ft
Dew Point 45 °F
Humidity 81%
Rainfall 0.00 in
Snow Depth Not available.
6:16 AM 7:55 PM
Waxing Gibbous, 86% visible
METAR KDCA 260852Z 30006KT 10SM FEW050 FEW250 12/03 A2983 RMK AO2 SLP101 T01170033 51026

Get Severe Weather Alerts

Thanks for signing up!

Be on the lookout for a verification email in your inbox.

You'll start receiving the daily forecast at 6 AM.

×

10-Day Weather Forecast

Almanac

Astronomy

Apr. 26, 2018 Rise Set
Actual Time
Civil Twilight
Nautical Twilight
Astronomical Twilight
Moon
Length of Visible Light
Length of Day
Tomorrow will be .
, % of the Moon is Illuminated

Today's Extremes

State Highs State Lows

Community

WunderPhotos

Category 6

Welcome to Category 6. This is the collective home for Weather Underground's featured writeups by Dr. Jeff Masters (right), Bob Henson (left), Chris Burt, and other regular contributors.

Nearby

Air Quality

  Air Quality AQ Index Pollutant
Not available.

Snow Depth

Station Depth Elevation

Earthquake Activity

City Distance Mag. Time & Date
Minimum magnitude displayed is 2.5.

Coastal Water Temperatures

Place Temperature

Stations

Nearby Weather Stations

Station Location Temp. Windchill Dew Point Humidity Wind Precip. Elev Updated Type
                   

Watches & Warnings

There are currently no watches in effect.